Location: Krakow
(50.0830°N, 19.9170°E)
Time: 16:52:03
(UTC+01:00)

Transit 2A Rocket - Pass Details

Date: 10 December 2023
Orbit: 590 x 905 km, 66.7° (Epoch: 03 March)

Event Time Altitude Azimuth Distance (km) Brightness Sun altitude
Exits shadow 04:35:10 27° 174° (S) 1,227 6.1 -26.5°
Drops below altitude 10° 04:37:22 10° 163° (SSE) 2,041 7.4 -26.1°
Sets 04:39:46 0° 159° (SSE) 2,993 8.4 -25.7°
